TimeCST,TemperatureF,Dew PointF,Humidity,Sea Level PressureIn,VisibilityMPH,Wind Direction,Wind SpeedMPH,Gust SpeedMPH,PrecipitationIn,Events,Conditions,WindDirDegrees,DateUTC
12:16 AM,21.0,16.7,83,29.93,10.0,SSE,10.4,20.7,N/A,,Clear,160,2013-01-07 06:16:00
12:36 AM,21.9,17.4,83,29.91,10.0,South,12.7,19.6,N/A,,Clear,170,2013-01-07 06:36:00
12:55 AM,22.3,17.6,82,29.89,10.0,South,13.8,21.9,N/A,,Clear,170,2013-01-07 06:55:00
1:16 AM,23.2,18.1,81,29.90,10.0,South,13.8,21.9,N/A,,Clear,180,2013-01-07 07:16:00
1:36 AM,23.5,18.3,80,29.89,10.0,South,16.1,24.2,N/A,,Clear,180,2013-01-07 07:36:00
1:56 AM,23.5,18.3,80,29.89,10.0,South,10.4,20.7,N/A,,Clear,180,2013-01-07 07:56:00
2:35 AM,26.4,20.1,77,29.88,10.0,South,16.1,23.0,N/A,,Clear,190,2013-01-07 08:35:00
2:56 AM,26.4,19.9,77,29.88,10.0,South,15.0,24.2,N/A,,Clear,190,2013-01-07 08:56:00
3:16 AM,25.7,19.6,78,29.88,10.0,South,12.7,21.9,N/A,,Clear,190,2013-01-07 09:16:00
3:36 AM,24.8,19.2,79,29.87,10.0,South,13.8,21.9,N/A,,Clear,190,2013-01-07 09:36:00
3:56 AM,24.8,19.4,80,29.86,10.0,South,15.0,20.7,N/A,,Clear,190,2013-01-07 09:56:00
4:16 AM,24.8,19.4,80,29.86,10.0,South,16.1,21.9,N/A,,Clear,190,2013-01-07 10:16:00
4:36 AM,25.0,19.6,80,29.86,10.0,SSW,11.5,19.6,N/A,,Clear,200,2013-01-07 10:36:00
4:56 AM,25.2,19.8,80,29.87,10.0,SSW,11.5,18.4,N/A,,Clear,200,2013-01-07 10:56:00
5:16 AM,25.2,19.8,80,29.87,10.0,SSW,11.5,18.4,N/A,,Clear,200,2013-01-07 11:16:00
5:36 AM,24.8,19.8,81,29.87,10.0,SSW,13.8,19.6,N/A,,Clear,200,2013-01-07 11:36:00
5:56 AM,24.8,19.8,81,29.86,10.0,South,11.5,20.7,N/A,,Clear,190,2013-01-07 11:56:00
6:16 AM,24.4,19.4,81,29.87,10.0,SSW,9.2,17.3,N/A,,Clear,200,2013-01-07 12:16:00
6:36 AM,23.5,19.0,83,29.87,10.0,SSW,9.2,-,N/A,,Clear,200,2013-01-07 12:36:00
6:56 AM,23.7,19.0,82,29.87,10.0,SSW,5.8,-,N/A,,Clear,200,2013-01-07 12:56:00
7:16 AM,23.4,19.2,84,29.87,10.0,SSW,10.4,-,N/A,,Clear,200,2013-01-07 13:16:00
7:36 AM,23.5,19.2,84,29.88,10.0,Calm,Calm,-,N/A,,Clear,0,2013-01-07 13:36:00
7:56 AM,23.0,18.9,84,29.87,10.0,South,3.5,-,N/A,,Clear,190,2013-01-07 13:56:00
8:16 AM,23.0,18.9,84,29.88,10.0,Calm,Calm,-,N/A,,Clear,0,2013-01-07 14:16:00
8:20 AM,22.8,18.7,84,29.87,10.0,Calm,Calm,-,N/A,,Clear,0,2013-01-07 14:20:00
9:05 AM,23.0,19.4,86,29.89,10.0,Calm,Calm,-,N/A,,Clear,0,2013-01-07 15:05:00
9:25 AM,24.8,19.4,80,29.89,10.0,Calm,Calm,-,N/A,,Clear,0,2013-01-07 15:25:00
9:45 AM,24.8,21.2,86,29.91,10.0,Calm,Calm,-,N/A,,Clear,0,2013-01-07 15:45:00
10:05 AM,26.6,21.2,80,29.92,10.0,Calm,Calm,-,N/A,,Clear,0,2013-01-07 16:05:00
10:25 AM,28.4,21.2,74,29.92,10.0,Calm,Calm,-,N/A,,Scattered Clouds,0,2013-01-07 16:25:00
10:45 AM,28.4,23.0,80,29.92,10.0,Calm,Calm,-,N/A,,Scattered Clouds,0,2013-01-07 16:45:00
11:05 AM,30.2,23.0,75,29.92,10.0,Calm,Calm,-,N/A,,Scattered Clouds,0,2013-01-07 17:05:00
11:25 AM,32.0,24.8,75,29.91,10.0,Calm,Calm,-,N/A,,Scattered Clouds,0,2013-01-07 17:25:00
11:45 AM,32.0,24.8,75,29.90,10.0,Calm,Calm,-,N/A,,Clear,0,2013-01-07 17:45:00
12:05 PM,32.0,24.8,75,29.90,10.0,Calm,Calm,-,N/A,,Clear,0,2013-01-07 18:05:00
12:25 PM,32.0,24.8,75,29.90,10.0,Calm,Calm,-,N/A,,Clear,0,2013-01-07 18:25:00
12:45 PM,32.0,24.8,75,29.89,10.0,Calm,Calm,-,N/A,,Clear,0,2013-01-07 18:45:00
1:05 PM,32.0,24.8,75,29.89,10.0,Calm,Calm,-,N/A,,Clear,0,2013-01-07 19:05:00
1:25 PM,33.8,24.8,70,29.89,10.0,Calm,Calm,-,N/A,,Clear,0,2013-01-07 19:25:00
1:45 PM,33.8,24.8,70,29.89,10.0,Calm,Calm,-,N/A,,Clear,0,2013-01-07 19:45:00
2:05 PM,33.8,24.8,70,29.89,10.0,Calm,Calm,-,N/A,,Clear,0,2013-01-07 20:05:00
2:25 PM,33.8,24.8,70,29.89,10.0,Calm,Calm,-,N/A,,Clear,0,2013-01-07 20:25:00
2:45 PM,33.8,24.8,70,29.90,10.0,Calm,Calm,-,N/A,,Clear,0,2013-01-07 20:45:00
3:05 PM,33.8,24.8,70,29.90,10.0,Calm,Calm,-,N/A,,Clear,0,2013-01-07 21:05:00
3:25 PM,33.8,24.8,70,29.90,10.0,Calm,Calm,-,N/A,,Clear,0,2013-01-07 21:25:00
3:45 PM,33.8,24.8,70,29.91,10.0,Calm,Calm,-,N/A,,Clear,0,2013-01-07 21:45:00
4:05 PM,32.0,24.8,75,29.91,10.0,Calm,Calm,-,N/A,,Clear,0,2013-01-07 22:05:00
4:25 PM,30.2,24.8,80,29.92,10.0,Calm,Calm,-,N/A,,Clear,0,2013-01-07 22:25:00
5:05 PM,28.4,23.0,80,29.93,10.0,Calm,Calm,-,N/A,,Clear,0,2013-01-07 23:05:00
5:25 PM,26.6,21.2,80,29.93,10.0,Calm,Calm,-,N/A,,Clear,0,2013-01-07 23:25:00
5:45 PM,26.6,23.0,86,29.93,10.0,Calm,Calm,-,N/A,,Clear,0,2013-01-07 23:45:00
6:05 PM,24.8,21.2,86,29.94,10.0,Calm,Calm,-,N/A,,Clear,0,2013-01-08 00:05:00
6:25 PM,26.6,23.0,86,29.94,10.0,Calm,Calm,-,N/A,,Clear,0,2013-01-08 00:25:00
6:45 PM,26.6,23.0,86,29.94,10.0,Calm,Calm,-,N/A,,Clear,0,2013-01-08 00:45:00
7:05 PM,26.6,21.2,80,29.95,10.0,Calm,Calm,-,N/A,,Clear,0,2013-01-08 01:05:00
7:25 PM,24.8,21.2,86,29.94,10.0,Calm,Calm,-,N/A,,Clear,0,2013-01-08 01:25:00
7:45 PM,26.6,23.0,86,29.94,10.0,Calm,Calm,-,N/A,,Clear,0,2013-01-08 01:45:00
8:05 PM,23.0,21.2,93,29.93,10.0,Calm,Calm,-,N/A,,Clear,0,2013-01-08 02:05:00
8:25 PM,24.8,21.2,86,29.94,10.0,Calm,Calm,-,N/A,,Clear,0,2013-01-08 02:25:00
8:45 PM,24.8,21.2,86,29.94,10.0,Calm,Calm,-,N/A,,Clear,0,2013-01-08 02:45:00
9:25 PM,24.8,21.2,86,29.94,10.0,Calm,Calm,-,N/A,,Scattered Clouds,0,2013-01-08 03:25:00
9:45 PM,26.6,21.2,80,29.94,10.0,Calm,Calm,-,N/A,,Scattered Clouds,0,2013-01-08 03:45:00
10:05 PM,26.6,21.2,80,29.95,10.0,Calm,Calm,-,N/A,,Mostly Cloudy,0,2013-01-08 04:05:00
10:25 PM,26.6,21.2,80,29.94,10.0,Calm,Calm,-,N/A,,Overcast,0,2013-01-08 04:25:00
10:45 PM,26.6,21.2,80,29.94,10.0,Calm,Calm,-,N/A,,Mostly Cloudy,0,2013-01-08 04:45:00
11:05 PM,26.6,21.2,80,29.95,10.0,Calm,Calm,-,N/A,,Mostly Cloudy,0,2013-01-08 05:05:00
11:25 PM,24.8,21.2,86,29.95,10.0,Calm,Calm,-,N/A,,Scattered Clouds,0,2013-01-08 05:25:00
11:45 PM,23.0,19.4,86,29.95,10.0,Calm,Calm,-,N/A,,Clear,0,2013-01-08 05:45:00